User: anonymous   Login
Location: Melbourne
(37.8170°S, 144.9670°E)
Time: 21:14:32
(UTC+10:00)
Language:

ADEOS Rocket - Orbit

View from above orbital plane
View from above orbital plane
View from above satellite
View from above satellite

Ground track
Ground track

The orbit data is extracted from the following two-line orbital elements,

1 24279U 96046C   16119.92832348 -.00000011 +00000-0 +34799-4 0  9995
2 24279 098.6993 110.2833 0299034 265.3509 144.8145 13.47047218968204
Epoch (UTC): 28 April 2016 22:16:47
Eccentricity: 0.0299034
inclination: 98.6993°
perigee height: 860 km
apogee height: 1306 km
right ascension of ascending node: 110.2833°
argument of perigee: 265.3509°
revolutions per day: 13.47047218
mean anomaly at epoch: 144.8145°
orbit number at epoch: 96820

The dashed part of the orbit path shows where the satellite is in the earth's shadow,  

DLR